Greybull, WY

4:37 AM MST on January 17, 2018 (GMT -0700)
South Big Horn County

Weather History for KGEY - April, 2014

Change the Weather History Date:

Tuesday, April 8, 2014

  Actual Average Record
Temperature  
Mean Temperature 50 °F 44 °F  
Max Temperature 69 °F 58 °F 73 °F (2016)
Min Temperature 31 °F 30 °F 21 °F (2000)
Degree Days  
Heating Degree Days 15 21  
Month to date heating degree days 185 174  
Since 1 July heating degree days 6977 7016  
Cooling Degree Days 0 0  
Month to date cooling degree days 0 0  
Year to date cooling degree days 0 0  
Moisture  
Dew Point 29 °F    
Average Humidity 57    
Maximum Humidity 92    
Minimum Humidity 21    
Precipitation  
Precipitation 0.00 in 0.02 in 0.05 in (2001)
Month to date precipitation 0.17 0.13  
Year to date precipitation 0.61 0.94  
Sea Level Pressure  
Sea Level Pressure 30.08 in    
Wind  
Wind Speed 5 mph (SE)    
Max Wind Speed 8 mph    
Max Gust Speed 15 mph    
Visibility 10 miles    
Events      
T = Trace of Precipitation, MM = Missing Value Source: NWS Daily Summary

Daily Weather History Graph

Daily Weather History Graph

Search for Another Location

Airport or City:

Trip Planner

Search our weather history database for the weather conditions in past years. The results will help you decide how hot, cold, wet, or windy it might be!

Date:

Astronomy

Apr. 08, 2014 Rise Set
Actual Time 6:40 AM MDT 7:48 PM MDT
Civil Twilight 6:10 AM MDT 8:18 PM MDT
Nautical Twilight 5:34 AM MDT 8:54 PM MDT
Astronomical Twilight 4:57 AM MDT 9:32 PM MDT
Moon 1:31 PM MDT (4/8) 3:09 AM MDT (4/8)
Length of Visible Light 14h 07m
Length of Day
13h 08m
Waxing Gibbous, 63% of the Moon is Illuminated
Apr 8
Waxing Gibbous
Apr 15
Full
Apr 22
Last Quarter
Apr 29
New
May 6
First Quarter

Hourly Weather History & Observations

Time (MDT) Temp. Windchill Dew Point Humidity Pressure Visibility Wind Dir Wind Speed Gust Speed Precip Events Conditions
12:53 AM 39.9 °F 36.7 °F 30.9 °F 70% 30.17 in 10.0 mi ESE 4.6 mph - N/A   Clear
1:53 AM 37.9 °F 34.4 °F 30.0 °F 73% 30.16 in 10.0 mi Variable 4.6 mph - N/A   Clear
2:53 AM 37.9 °F 32.7 °F 28.9 °F 70% 30.15 in 10.0 mi ESE 6.9 mph - N/A   Clear
3:53 AM 36.0 °F 33.3 °F 28.9 °F 76% 30.15 in 10.0 mi ESE 3.5 mph - N/A   Clear
4:53 AM 34.0 °F 29.8 °F 28.0 °F 79% 30.17 in 10.0 mi SSE 4.6 mph - N/A   Clear
5:53 AM 30.9 °F - 28.0 °F 89% 30.19 in 10.0 mi Calm Calm - N/A   Clear
6:53 AM 33.1 °F 28.7 °F 28.0 °F 82% 30.19 in 10.0 mi SE 4.6 mph - N/A   Clear
7:53 AM 34.0 °F 29.8 °F 28.9 °F 82% 30.19 in 10.0 mi ESE 4.6 mph - N/A   Clear
8:53 AM 42.1 °F - 30.0 °F 62% 30.18 in 10.0 mi Calm Calm - N/A   Clear
9:53 AM 46.9 °F - 30.9 °F 54% 30.17 in 10.0 mi Variable 3.5 mph - N/A   Clear
10:53 AM 52.0 °F - 32.0 °F 47% 30.15 in 10.0 mi Calm Calm - N/A   Clear
12:53 PM 60.1 °F - 30.0 °F 32% 30.11 in 10.0 mi SE 5.8 mph - N/A   Clear
1:53 PM 62.1 °F - 28.0 °F 28% 30.08 in 10.0 mi Variable 6.9 mph - N/A   Clear
2:53 PM 66.0 °F - 28.0 °F 24% 30.04 in 10.0 mi Variable 3.5 mph - N/A   Clear
3:53 PM 66.9 °F - 27.0 °F 22% 30.00 in 10.0 mi Variable 4.6 mph - N/A   Clear
4:53 PM 68.0 °F - 26.1 °F 21% 29.98 in 10.0 mi SSE 4.6 mph - N/A   Clear
5:53 PM 68.0 °F - 27.0 °F 21% 29.96 in 10.0 mi SE 8.1 mph - N/A   Clear
6:53 PM 64.9 °F - 28.9 °F 26% 29.96 in 10.0 mi East 4.6 mph - N/A   Clear
7:53 PM 60.1 °F - 30.9 °F 33% 29.96 in 10.0 mi East 3.5 mph - N/A   Clear
8:53 PM 59.0 °F - 26.1 °F 28% 29.95 in 10.0 mi West 8.1 mph - N/A   Clear
9:53 PM 55.9 °F - 27.0 °F 33% 29.96 in 10.0 mi West 5.8 mph - N/A   Clear
10:53 PM 51.1 °F - 30.9 °F 46% 29.95 in 10.0 mi South 4.6 mph - N/A   Clear
11:53 PM 51.1 °F - 30.9 °F 46% 29.93 in 10.0 mi East 8.1 mph - N/A   Clear